Regional Weather Roundup
Issued by NWS Northern Indiana

Home | Current Version | Previous Version | Graphics & Text | Print | Product List | Glossary On
Versions: 1 2 3 4 5 6 7 8 9 10 11 12 13 14 15 16 17 18 19 20 21 22 23 24 25 26 27 28 29 30 31 32 33 34 35 36 37 38 39 40 41 42 43 44 45 46 47 48 49 50
000
ASUS43 KIWX 211600
RWRIWX

KIWX WEATHER ROUNDUP
NATIONAL WEATHER SERVICE NORTHERN INDIANA
1200 PM EDT THU AUG 21 2014

NOTE: "FAIR" INDICATES FEW OR NO CLOUDS BELOW 12,000 FEET WITH NO
SIGNIFICANT WEATHER AND/OR OBSTRUCTIONS TO VISIBILITY.

* THESE STATIONS ARE NOT UNDER NWS QUALITY CONTROL. THEY ALSO MAY NOT
  REPORT WEATHER SUCH AS PRECIPITATION OR FOG.

INZ001>027-211700-
NORTHERN INDIANA

CITY           SKY/WX    TMP DP  RH WIND       PRES   REMARKS
GARY*          CLOUDY    75  72  88 S7        29.95F
VALPARAISO     LGT RAIN  71  70  96 S8        29.97F
KNOX*          CLOUDY    71  69  93 S8        29.97S
SOUTH BEND     CLOUDY    74  69  85 NE3       29.97F
ELKHART*       CLOUDY    73  68  83 E5        29.99
GOSHEN         CLOUDY    77  69  76 CALM      29.99F
MONTICELLO*    CLOUDY    74  72  93 S5        30.00F
WARSAW*        RAIN      72  70  94 CALM      30.01F
ANGOLA*        CLOUDY    75  70  83 W6        30.03S
FORT WAYNE     LGT RAIN  71  70  96 S9        30.02F

$$
INZ028>050-211700-
CENTRAL INDIANA

CITY           SKY/WX    TMP DP  RH WIND       PRES   REMARKS
LAFAYETTE      CLOUDY    77  72  84 W7        30.02R
KOKOMO*        CLOUDY    70  68  94 SE9       30.05S
MUNCIE*        TSTM      69  67  93 S7G18     30.07F VSB 1/2
INDIANAPOLIS   CLOUDY    76  70  82 VRB3      30.05R

$$
MIZ043>046-050>051-056>058-064>065-071>073-077>080-211700-
SOUTHWEST LOWER MICHIGAN

CITY           SKY/WX    TMP DP  RH WIND       PRES   REMARKS
BATTLE CREEK   CLOUDY    78  69  73 SW6       30.01S
BENTON HARBOR  CLOUDY    75  69  81 SW5       29.95F
COLDWATER*     CLOUDY    78  69  73 SW9       30.02S
HILLSDALE*     PTSUNNY   78  70  74 W6        30.03S
HOLLAND        CLOUDY    77  70  79 SW8       29.99S
GRAND RAPIDS   CLOUDY    75  70  84 SE6       30.00S
KALAMAZOO      CLOUDY    78  67  68 W7        30.00S
STURGIS*         N/A     72  70  94 CALM      30.01F
THREE RIVERS*  CLOUDY    74  69  85 SW5       30.01F

$$
OHZ001>008-015>018-024>025-211700-
NORTHWEST OHIO

CITY           SKY/WX    TMP DP  RH WIND       PRES   REMARKS
DEFIANCE       CLOUDY    77  68  73 SW7       30.03F
FINDLAY        CLOUDY    78  69  73 SW12      30.03F
TOLEDO METCALF PTSUNNY   78  69  73 W9        30.02S
LIMA           TSTM      71  69  93 W9        30.07R VSB 3/4

$$
&&


USA.gov is the U.S. government's official web portal to all federal, state and local government web resources and services.